Akron, OH

9:26 AM EST on February 08, 2016 (GMT -0500)
Akron Fulton International

Weather History for KAKR - June, 2014

Change the Weather History Date:

Thursday, June 12, 2014

  Actual Average (KCAK) Record (KCAK)
Temperature  
Mean Temperature 73 °F 67 °F  
Max Temperature 81 °F 77 °F 91 °F (1961)
Min Temperature 64 °F 57 °F 40 °F (1906)
Degree Days  
Heating Degree Days 0 2  
Month to date heating degree days 33  
Since 1 June heating degree days 33  
Since 1 July heating degree days 6134  
Cooling Degree Days 8 4  
Month to date cooling degree days 37  
Year to date cooling degree days 79  
Since 1 June cooling degree days 37  
Growing Degree Days 23 (Base 50)    
Moisture  
Dew Point 63 °F    
Average Humidity 76    
Maximum Humidity 90    
Minimum Humidity 54    
Precipitation  
Precipitation 0.00 in 0.12 in 1.50 in (1960)
Month to date precipitation 1.53  
Year to date precipitation 17.26  
Snow  
Snow 0.00 in 0.00 in - ()
Month to date snowfall 0.0  
Since 1 June snowfall 0.0  
Since 1 July snowfall 47.5  
Snow Depth -    
Sea Level Pressure  
Sea Level Pressure 29.80 in    
Wind  
Wind Speed 7 mph (SSW)    
Max Wind Speed 15 mph    
Max Gust Speed 22 mph    
Visibility 10 miles    
Events      
T = Trace of Precipitation, MM = Missing Value Source: NWS Daily Summary

Daily Weather History Graph

Daily Weather History Graph

Search for Another Location

Airport or City:

Trip Planner

Search our weather history database for the weather conditions in past years. The results will help you decide how hot, cold, wet, or windy it might be!

Date:

Astronomy

Jun. 12, 2014 Rise Set
Actual Time 5:53 AM EDT 8:58 PM EDT
Civil Twilight 5:19 AM EDT 9:32 PM EDT
Nautical Twilight 4:36 AM EDT 10:15 PM EDT
Astronomical Twilight 3:46 AM EDT 11:05 PM EDT
Moon 8:28 PM EDT (6/12) 5:33 AM EDT (6/12)
Length of Visible Light 16h 12m
Length of Day
15h 05m
Full, 100% of the Moon is Illuminated
Jun 12
Full
Jun 13
Full
Jun 19
Last Quarter
Jun 27
New
Jul 5
First Quarter

Hourly Weather History & Observations

Time (EDT) Temp. Heat Index Dew Point Humidity Pressure Visibility Wind Dir Wind Speed Gust Speed Precip Events Conditions
12:54 AM 69.1 °F - 63.0 °F 81% 29.79 in 10.0 mi SE 5.8 mph - N/A   Partly Cloudy
1:54 AM 66.9 °F - 63.0 °F 87% 29.77 in 10.0 mi SSE 5.8 mph - N/A   Clear
2:54 AM 66.9 °F - 63.0 °F 87% 29.78 in 10.0 mi South 6.9 mph - N/A   Mostly Cloudy
3:11 AM 66.9 °F - 63.0 °F 87% 29.80 in 10.0 mi South 5.8 mph - N/A   Scattered Clouds
3:54 AM 66.9 °F - 63.0 °F 87% 29.78 in 10.0 mi Variable 3.5 mph - N/A   Scattered Clouds
4:45 AM 66.0 °F - 63.0 °F 90% 29.80 in 10.0 mi South 3.5 mph - N/A   Mostly Cloudy
4:54 AM 66.9 °F - 63.0 °F 87% 29.78 in 10.0 mi South 3.5 mph - N/A   Mostly Cloudy
5:20 AM 66.0 °F - 63.0 °F 90% 29.80 in 10.0 mi South 4.6 mph - N/A   Scattered Clouds
5:54 AM 66.0 °F - 63.0 °F 90% 29.78 in 10.0 mi Calm Calm - N/A   Mostly Cloudy
6:37 AM 66.9 °F - 63.0 °F 87% 29.82 in 10.0 mi South 5.8 mph - N/A   Overcast
6:54 AM 68.0 °F - 63.0 °F 84% 29.80 in 10.0 mi South 5.8 mph - N/A   Overcast
7:26 AM 68.0 °F - 64.0 °F 87% 29.83 in 10.0 mi SSW 6.9 mph - N/A   Mostly Cloudy
7:54 AM 70.0 °F - 64.9 °F 84% 29.81 in 10.0 mi South 10.4 mph - N/A   Mostly Cloudy
8:21 AM 70.0 °F - 64.9 °F 84% 29.83 in 10.0 mi SSW 9.2 mph - N/A   Mostly Cloudy
8:54 AM 70.0 °F - 64.9 °F 84% 29.81 in 10.0 mi South 12.7 mph - N/A   Overcast
9:32 AM 72.0 °F - 64.9 °F 78% 29.82 in 10.0 mi South 12.7 mph - N/A   Scattered Clouds
10:47 AM 73.9 °F - 63.0 °F 68% 29.82 in 10.0 mi SW 11.5 mph 16.1 mph N/A   Mostly Cloudy
10:54 AM 73.9 °F - 64.0 °F 71% 29.80 in 10.0 mi SSW 10.4 mph - N/A   Overcast
11:30 AM 73.9 °F - 64.0 °F 71% 29.84 in 10.0 mi SSW 12.7 mph - N/A   Overcast
11:54 AM 73.9 °F - 64.0 °F 71% 29.82 in 10.0 mi SSW 11.5 mph - N/A   Mostly Cloudy
12:54 PM 78.1 °F - 63.0 °F 60% 29.81 in 10.0 mi SW 12.7 mph - N/A   Partly Cloudy
1:54 PM 80.1 °F 81.5 °F 63.0 °F 56% 29.79 in 10.0 mi SW 15.0 mph 21.9 mph N/A   Clear
2:54 PM 78.1 °F - 61.0 °F 56% 29.78 in 10.0 mi WSW 12.7 mph 18.4 mph N/A   Mostly Cloudy
3:54 PM 77.0 °F - 62.1 °F 60% 29.79 in 10.0 mi West 15.0 mph - N/A   Overcast
4:54 PM 78.1 °F - 61.0 °F 56% 29.78 in 10.0 mi WSW 11.5 mph - N/A   Mostly Cloudy
5:54 PM 78.1 °F - 60.1 °F 54% 29.77 in 10.0 mi WSW 12.7 mph - N/A   Scattered Clouds
6:54 PM 77.0 °F - 60.1 °F 56% 29.77 in 10.0 mi WNW 11.5 mph - N/A   Mostly Cloudy
7:54 PM 73.9 °F - 60.1 °F 62% 29.78 in 10.0 mi West 9.2 mph - N/A   Overcast
8:54 PM 73.0 °F - 60.1 °F 64% 29.78 in 10.0 mi West 8.1 mph - N/A   Scattered Clouds
9:54 PM 70.0 °F - 61.0 °F 73% 29.80 in 10.0 mi SW 4.6 mph - N/A   Partly Cloudy
10:54 PM 66.9 °F - 61.0 °F 81% 29.81 in 10.0 mi SW 5.8 mph - N/A   Scattered Clouds
11:54 PM 64.9 °F - 60.1 °F 84% 29.81 in 10.0 mi SW 4.6 mph - N/A   Partly Cloudy